CW5302 Weather Reports


Display with metric or nautical units.
time (UTC)temp
F
wind
direction
speed
MPH
gust
MPH
rain 1hr
in
rain 24hr
in
rain mn
in
humidity
%
barometer
mb
20260906205327 68 273 0.0 6.0 0.00 0.00 0.00 58 1013.5
20260906204327 69 321 0.0 7.0 0.00 0.00 0.00 57 1013.5
20260906203328 68 285 0.0 4.0 0.00 0.00 0.00 58 1013.5
20260906202335 69 197 1.0 4.0 0.00 0.00 0.00 57 1013.5
20260906201313 69 255 0.0 5.0 0.00 0.00 0.00 58 1013.5
20260906200313 67 145 0.0 2.0 0.00 0.00 0.00 60 1013.5
20260906195313 66 186 0.0 3.0 0.00 0.00 0.00 62 1013.5
20260906194332 66 70 0.0 0.0 0.00 0.00 0.00 62 1013.6
20260906193331 67 70 0.0 3.0 0.00 0.00 0.00 61 1013.6
20260906192331 67 161 0.0 7.0 0.00 0.00 0.00 62 1013.7
20260906191331 67 113 0.0 4.0 0.00 0.00 0.00 61 1013.9
20260906190316 66 320 0.0 0.0 0.00 0.00 0.00 65 1013.9
20260906185315 66 319 0.0 4.0 0.00 0.00 0.00 63 1014.0
20260906184314 65 355 0.0 4.0 0.00 0.00 0.00 67 1014.0
20260906183314 64 214 0.0 0.0 0.00 0.00 0.00 70 1014.0
20260906182314 63 215 0.0 1.0 0.00 0.00 0.00 70 1014.0
20260906181315 63 238 0.0 0.0 0.00 0.00 0.00 69 1013.9
20260906180314 63 300 0.0 0.0 0.00 0.00 0.00 70 1013.9
20260906175313 63 320 0.0 5.0 0.00 0.00 0.00 70 1013.9
20260906174314 63 42 0.0 4.0 0.00 0.00 0.00 71 1013.7
20260906173314 63 101 0.0 3.0 0.00 0.00 0.00 72 1013.7
20260906172315 63 309 0.0 0.0 0.00 0.00 0.00 72 1013.5
20260906171335 62 309 0.0 1.0 0.00 0.00 0.00 76 1013.5
20260906170314 61 309 0.0 1.0 0.00 0.00 0.00 79 1013.5
20260906165333 59 309 0.0 0.0 0.00 0.00 0.00 81 1013.8
20260906164313 59 309 0.0 0.0 0.00 0.00 0.00 81 1013.8
20260906163316 59 309 0.0 0.0 0.00 0.00 0.00 83 1013.8
20260906162315 58 309 0.0 0.0 0.00 0.00 0.00 86 1013.9
20260906161316 58 309 0.0 0.0 0.00 0.00 0.00 88 1014.0
20260906160317 58 309 0.0 0.0 0.00 0.00 0.00 89 1014.0
20260906155317 58 309 0.0 0.0 0.00 0.00 0.00 89 1013.8
20260906154317 58 309 0.0 0.0 0.00 0.00 0.00 89 1013.7
20260906153318 58 309 0.0 0.0 0.00 0.00 0.00 89 1013.7
20260906152338 58 309 0.0 0.0 0.00 0.00 0.00 89 1013.6
20260906151335 58 309 0.0 0.0 0.00 0.00 0.00 89 1013.5
20260906150314 58 309 0.0 0.0 0.00 0.00 0.00 89 1013.5
20260906145314 58 309 0.0 0.0 0.00 0.00 0.00 89 1013.1
20260906144314 58 309 0.0 0.0 0.00 0.00 0.00 89 1013.0
20260906143314 57 309 0.0 1.0 0.00 0.00 0.00 90 1013.0
20260906142312 57 309 0.0 0.0 0.00 0.00 0.00 90 1012.9
20260906141313 57 309 0.0 0.0 0.00 0.00 0.00 90 1012.8
20260906140334 57 309 0.0 0.0 0.00 0.00 0.00 90 1012.8
20260906135352 57 309 0.0 0.0 0.00 0.00 0.00 90 1012.6
20260906134331 57 309 0.0 0.0 0.00 0.00 0.00 90 1012.5
20260906133314 57 309 0.0 0.0 0.00 0.00 0.00 90 1012.5
20260906132312 57 309 0.0 0.0 0.00 0.00 0.00 91 1012.5
20260906131314 57 309 0.0 0.0 0.00 0.00 0.00 91 1012.3
20260906130315 57 309 0.0 0.0 0.00 0.00 0.00 91 1012.3
20260906125314 57 309 0.0 0.0 0.00 0.00 0.00 91 1012.1
20260906124316 57 309 0.0 0.0 0.00 0.00 0.00 91 1012.1
20260906123315 57 309 0.0 0.0 0.00 0.00 0.00 91 1012.1
20260906122313 57 309 0.0 0.0 0.00 0.00 0.00 91 1012.2
20260906121311 57 309 0.0 0.0 0.00 0.00 0.00 92 1012.2
20260906120312 57 309 0.0 0.0 0.00 0.00 0.00 92 1012.2
20260906115312 57 309 0.0 0.0 0.00 0.00 0.00 92 1012.0
20260906114313 57 309 0.0 0.0 0.00 0.00 0.00 91 1012.0
20260906113313 57 309 0.0 0.0 0.00 0.00 0.00 89 1012.0
20260906112334 57 309 0.0 0.0 0.00 0.00 0.00 88 1012.0
20260906111333 58 309 0.0 0.0 0.00 0.00 0.00 88 1012.1
20260906110329 58 309 0.0 0.0 0.00 0.00 0.00 87 1012.1
20260906105350 58 309 0.0 0.0 0.00 0.00 0.00 87 1012.1
20260906104327 58 309 0.0 0.0 0.00 0.00 0.00 86 1012.1
20260906103313 58 309 0.0 0.0 0.00 0.00 0.00 88 1012.1
20260906102312 59 309 0.0 0.0 0.00 0.00 0.00 88 1012.0
20260906101313 59 309 0.0 0.0 0.00 0.00 0.00 88 1011.9
20260906100314 59 309 0.0 0.0 0.00 0.00 0.00 88 1011.9
20260906095313 59 309 0.0 0.0 0.00 0.00 0.00 88 1011.9
20260906094313 59 309 0.0 0.0 0.00 0.00 0.00 87 1012.0
20260906093314 59 309 0.0 0.0 0.00 0.00 0.00 86 1012.0
20260906092312 58 309 0.0 0.0 0.00 0.00 0.00 83 1011.9
20260906091331 58 309 0.0 0.0 0.00 0.00 0.00 84 1011.9
20260906090312 59 309 0.0 0.0 0.00 0.00 0.00 83 1011.9
20260906085312 59 309 0.0 0.0 0.00 0.00 0.00 82 1011.9
20260906084330 59 309 0.0 0.0 0.00 0.00 0.00 81 1011.9
20260906083330 60 309 0.0 0.0 0.00 0.00 0.00 82 1011.9
20260906082329 60 309 0.0 0.0 0.00 0.00 0.00 84 1012.0
20260906081314 60 309 0.0 0.0 0.00 0.00 0.00 83 1012.0
20260906080314 60 309 0.0 0.0 0.00 0.00 0.00 82 1012.0
20260906075314 60 309 0.0 0.0 0.00 0.00 0.00 79 1012.0
20260906074313 60 309 0.0 0.0 0.00 0.00 0.00 79 1012.0
20260906073331 60 309 0.0 0.0 0.00 0.00 0.00 79 1012.0
20260906072351 60 309 0.0 0.0 0.00 0.00 0.00 79 1012.3
20260906071328 60 309 0.0 0.0 0.00 0.00 0.00 79 1012.1
20260906070324 60 309 0.0 0.0 0.00 0.00 0.00 79 1012.1
20260906065323 61 309 0.0 0.0 0.00 0.00 0.00 79 1012.0
20260906064342 61 309 0.0 0.0 0.00 0.00 0.00 80 1012.0
20260906063321 61 309 0.0 0.0 0.00 0.00 0.00 79 1012.0
20260906062320 61 308 0.0 1.0 0.00 0.00 0.00 79 1011.9
20260906061338 62 308 0.0 0.0 0.00 0.00 0.00 78 1012.0
20260906060318 62 308 0.0 0.0 0.00 0.00 0.00 78 1012.0
20260906055336 62 308 0.0 3.0 0.00 0.00 0.00 78 1011.9
20260906054314 62 308 0.0 5.0 0.00 0.00 0.00 77 1011.9
20260906053333 62 313 0.0 0.0 0.00 0.00 0.00 78 1011.9
20260906052312 62 315 0.0 3.0 0.00 0.00 0.00 78 1011.9
20260906051311 61 267 0.0 1.0 0.00 0.00 0.00 80 1011.7
20260906050312 61 265 0.0 1.0 0.00 0.00 0.00 81 1011.7
20260906045310 61 252 0.0 0.0 0.00 0.00 0.00 81 1011.9
20260906044311 62 252 0.0 0.0 0.00 0.00 0.00 81 1011.9
20260906043313 62 252 0.0 0.0 0.00 0.00 0.00 80 1011.9
20260906042316 62 252 0.0 0.0 0.00 0.00 0.00 80 1011.9
20260906041315 62 252 0.0 0.0 0.00 0.00 0.00 79 1011.9
20260906040334 63 252 0.0 0.0 0.00 0.00 0.00 78 1011.9
20260906035314 63 252 0.0 0.0 0.00 0.00 0.00 77 1011.7
20260906034314 64 252 0.0 0.0 0.00 0.00 0.00 77 1011.5
20260906033315 64 252 0.0 0.0 0.00 0.00 0.00 74 1011.5
20260906032316 65 252 0.0 0.0 0.00 0.00 0.00 69 1011.4
20260906031316 65 252 0.0 0.0 0.00 0.00 0.00 67 1011.4
20260906030336 66 252 0.0 0.0 0.00 0.00 0.00 67 1011.4
20260906025315 66 252 0.0 0.0 0.00 0.00 0.00 65 1011.4
20260906024335 67 252 0.0 1.0 0.00 0.00 0.00 64 1011.4
20260906023314 67 252 0.0 0.0 0.00 0.00 0.00 63 1011.4
20260906022314 67 252 0.0 4.0 0.00 0.00 0.00 62 1011.3
20260906021313 68 11 0.0 5.0 0.00 0.00 0.00 59 1010.9
20260906020313 68 329 0.0 4.0 0.00 0.00 0.00 60 1010.9
20260906015312 68 355 0.0 4.0 0.00 0.04 0.00 58 1010.9
20260906014316 69 10 0.0 0.0 0.00 0.04 0.00 60 1010.9
20260906013337 68 328 0.0 2.0 0.00 0.04 0.00 60 1010.9
20260906012316 68 329 0.0 0.0 0.00 0.04 0.00 61 1010.9
20260906011314 69 329 0.0 0.0 0.00 0.04 0.00 60 1010.9
20260906010313 69 329 0.0 7.0 0.00 0.04 0.00 59 1010.9
20260906005313 70 355 0.0 5.0 0.00 0.08 0.00 56 1010.9
20260906004332 70 251 0.0 4.0 0.00 0.08 0.00 56 1011.0
20260906003330 70 283 0.0 6.0 0.00 0.08 0.00 54 1011.0
20260906002330 71 11 1.0 6.0 0.00 0.08 0.00 55 1011.1
20260906001350 71 265 0.0 7.0 0.00 0.08 0.00 53 1011.1
20260906000328 71 317 1.0 6.0 0.00 0.08 0.00 56 1011.1
20260905235328 71 311 0.0 5.0 0.00 0.08 0.00 56 1011.1
20260905234326 72 5 1.0 6.0 0.00 0.08 0.00 56 1011.2
20260905233347 73 298 1.0 7.0 0.00 0.08 0.00 54 1011.2
20260905232324 72 36 1.0 5.0 0.00 0.08 0.00 56 1011.3
20260905231324 72 321 0.0 6.0 0.00 0.08 0.00 58 1011.3
20260905230323 72 38 0.0 7.0 0.00 0.08 0.00 58 1011.3
20260905225343 72 80 0.0 5.0 0.00 0.09 0.00 58 1011.4
20260905224321 72 55 1.0 5.0 0.00 0.09 0.00 58 1011.5
20260905223321 71 325 1.0 7.0 0.00 0.09 0.00 61 1011.5
20260905222324 70 38 0.0 1.0 0.00 0.09 0.00 63 1011.9
20260905221324 69 344 1.0 4.0 0.00 0.09 0.00 63 1011.9
20260905220344 68 5 0.0 6.0 0.00 0.09 0.00 63 1011.9
20260905215322 69 355 1.0 5.0 0.00 0.09 0.00 63 1012.0
20260905214342 69 16 1.0 6.0 0.00 0.09 0.00 63 1012.0
20260905213320 68 9 1.0 5.0 0.00 0.09 0.00 63 1012.0
20260905212317 68 12 1.0 4.0 0.00 0.09 0.00 64 1012.2
20260905211317 67 340 2.0 5.0 0.00 0.09 0.00 65 1012.5
20260905210317 67 13 1.0 7.0 0.00 0.09 0.00 67 1012.5